| time (UTC) | temp C | wind direction | speed KPH | gust KPH | rain 1hr cm | rain 24hr cm | rain mn cm | humidity % | barometer mb |
| 20260504081903 | 6 | 283 | 9.7 | 16.1 | 0.00 | 0.00 | 0.00 | 77 | 1012.2 |
| 20260504081402 | 6 | 282 | 9.7 | 14.5 | 0.00 | 0.00 | 0.00 | 77 | 1012.3 |
| 20260504080903 | 6 | 290 | 8.0 | 14.5 | 0.00 | 0.00 | 0.00 | 76 | 1012.4 |
| 20260504080402 | 6 | 299 | 8.0 | 14.5 | 0.00 | 0.00 | 0.00 | 76 | 1012.4 |
| 20260504070402 | 8 | 348 | 19.3 | 35.4 | 0.00 | 0.00 | 0.00 | 64 | 1012.6 |
| 20260504050403 | 10 | 1 | 11.3 | 19.3 | 0.00 | 0.00 | 0.00 | 48 | 1011.4 |
| 20260504045903 | 10 | 348 | 11.3 | 20.9 | 0.00 | 0.00 | 0.00 | 48 | 1011.3 |
| 20260504045403 | 10 | 347 | 16.1 | 27.4 | 0.00 | 0.00 | 0.00 | 48 | 1011.3 |
| 20260504044903 | 10 | 354 | 14.5 | 20.9 | 0.00 | 0.00 | 0.00 | 47 | 1011.3 |
| 20260504044403 | 10 | 348 | 17.7 | 27.4 | 0.00 | 0.00 | 0.00 | 47 | 1011.3 |
| 20260504043903 | 10 | 354 | 11.3 | 27.4 | 0.00 | 0.00 | 0.00 | 46 | 1011.2 |
| 20260504043403 | 11 | 3 | 16.1 | 24.1 | 0.00 | 0.00 | 0.00 | 45 | 1011.1 |
| 20260504042404 | 11 | 0 | 14.5 | 27.4 | 0.00 | 0.00 | 0.00 | 42 | 1010.9 |
| 20260504041905 | 11 | 0 | 19.3 | 37.0 | 0.00 | 0.00 | 0.00 | 41 | 1010.7 |
| 20260504040404 | 11 | 0 | 22.5 | 38.6 | 0.00 | 0.00 | 0.00 | 41 | 1010.3 |
| 20260504035903 | 11 | 0 | 16.1 | 24.1 | 0.00 | 0.00 | 0.00 | 41 | 1010.1 |
| 20260504035403 | 11 | 0 | 20.9 | 32.2 | 0.00 | 0.00 | 0.00 | 40 | 1010.0 |
| 20260504034903 | 12 | 0 | 20.9 | 29.0 | 0.00 | 0.00 | 0.00 | 41 | 1009.7 |
| 20260504033403 | 12 | 0 | 19.3 | 25.7 | 0.00 | 0.00 | 0.00 | 41 | 1009.3 |
| 20260504032903 | 12 | 0 | 20.9 | 27.4 | 0.00 | 0.00 | 0.00 | 41 | 1009.1 |
| 20260504031903 | 12 | 0 | 19.3 | 29.0 | 0.00 | 0.00 | 0.00 | 41 | 1008.8 |
| 20260504031403 | 12 | 0 | 16.1 | 25.7 | 0.00 | 0.00 | 0.00 | 41 | 1008.6 |
| 20260504030904 | 12 | 0 | 19.3 | 25.7 | 0.00 | 0.00 | 0.00 | 41 | 1008.4 |
| 20260504030403 | 12 | 0 | 16.1 | 27.4 | 0.00 | 0.00 | 0.00 | 41 | 1008.4 |
| 20260504025904 | 12 | 0 | 22.5 | 32.2 | 0.00 | 0.00 | 0.00 | 40 | 1008.3 |
| 20260504025403 | 12 | 0 | 16.1 | 37.0 | 0.00 | 0.00 | 0.00 | 40 | 1008.3 |
| 20260504024903 | 12 | 0 | 20.9 | 35.4 | 0.00 | 0.00 | 0.00 | 40 | 1008.2 |
| 20260504024403 | 12 | 0 | 20.9 | 29.0 | 0.00 | 0.00 | 0.00 | 40 | 1008.1 |
| 20260504023903 | 12 | 0 | 22.5 | 32.2 | 0.00 | 0.00 | 0.00 | 40 | 1008.0 |
| 20260504023403 | 13 | 0 | 25.7 | 35.4 | 0.00 | 0.00 | 0.00 | 39 | 1007.9 |
| 20260504022903 | 13 | 0 | 22.5 | 35.4 | 0.00 | 0.00 | 0.00 | 39 | 1007.8 |
| 20260504022403 | 13 | 0 | 22.5 | 37.0 | 0.00 | 0.00 | 0.00 | 39 | 1007.7 |
| 20260504021404 | 14 | 0 | 19.3 | 35.4 | 0.00 | 0.00 | 0.00 | 38 | 1007.3 |
| 20260504020903 | 15 | 0 | 16.1 | 25.7 | 0.00 | 0.00 | 0.00 | 38 | 1007.2 |
| 20260504020404 | 15 | 0 | 19.3 | 32.2 | 0.00 | 0.00 | 0.00 | 38 | 1007.0 |
| 20260504015903 | 15 | 0 | 22.5 | 35.4 | 0.00 | 0.00 | 0.00 | 37 | 1006.9 |
| 20260504015403 | 15 | 0 | 19.3 | 33.8 | 0.00 | 0.00 | 0.00 | 37 | 1006.8 |
| 20260504014903 | 16 | 0 | 17.7 | 29.0 | 0.00 | 0.00 | 0.00 | 37 | 1006.7 |
| 20260504014403 | 16 | 0 | 20.9 | 35.4 | 0.00 | 0.00 | 0.00 | 36 | 1006.6 |
| 20260504013903 | 16 | 0 | 14.5 | 27.4 | 0.00 | 0.00 | 0.00 | 37 | 1006.5 |
| 20260504013403 | 16 | 0 | 16.1 | 24.1 | 0.00 | 0.00 | 0.00 | 37 | 1006.5 |
| 20260504012904 | 16 | 41 | 16.1 | 32.2 | 0.00 | 0.00 | 0.00 | 36 | 1006.4 |
| 20260504012404 | 16 | 26 | 16.1 | 22.5 | 0.00 | 0.00 | 0.00 | 37 | 1006.3 |
| 20260504011903 | 17 | 23 | 17.7 | 25.7 | 0.00 | 0.00 | 0.00 | 37 | 1006.3 |
| 20260504011404 | 17 | 27 | 19.3 | 32.2 | 0.00 | 0.00 | 0.00 | 37 | 1006.2 |
| 20260504010904 | 17 | 11 | 14.5 | 20.9 | 0.00 | 0.00 | 0.00 | 37 | 1006.2 |
| 20260504010404 | 17 | 22 | 20.9 | 29.0 | 0.00 | 0.00 | 0.00 | 37 | 1006.1 |
| 20260504005904 | 17 | 23 | 19.3 | 32.2 | 0.00 | 0.00 | 0.00 | 36 | 1006.1 |
| 20260504005404 | 17 | 31 | 25.7 | 40.2 | 0.00 | 0.00 | 0.00 | 35 | 1006.0 |
| 20260504004904 | 17 | 27 | 20.9 | 38.6 | 0.00 | 0.00 | 0.00 | 35 | 1006.0 |
| 20260504004403 | 17 | 24 | 20.9 | 32.2 | 0.00 | 0.00 | 0.00 | 35 | 1005.9 |
| 20260504003903 | 17 | 29 | 22.5 | 37.0 | 0.00 | 0.00 | 0.00 | 35 | 1005.8 |
| 20260504002904 | 17 | 29 | 19.3 | 29.0 | 0.00 | 0.00 | 0.00 | 35 | 1005.7 |
| 20260504002404 | 17 | 32 | 19.3 | 32.2 | 0.00 | 0.00 | 0.00 | 34 | 1005.7 |
| 20260504001903 | 18 | 36 | 19.3 | 25.7 | 0.00 | 0.00 | 0.00 | 34 | 1005.6 |
| 20260504001405 | 18 | 23 | 19.3 | 27.4 | 0.00 | 0.00 | 0.00 | 33 | 1005.5 |
| 20260504000904 | 18 | 18 | 16.1 | 27.4 | 0.00 | 0.00 | 0.00 | 34 | 1005.4 |
| 20260503235904 | 18 | 41 | 19.3 | 35.4 | 0.00 | 0.00 | 0.00 | 33 | 1005.2 |
| 20260503235404 | 18 | 44 | 16.1 | 32.2 | 0.00 | 0.00 | 0.00 | 34 | 1005.1 |
| 20260503234904 | 18 | 40 | 17.7 | 35.4 | 0.00 | 0.00 | 0.00 | 33 | 1005.0 |
| 20260503234404 | 18 | 37 | 25.7 | 33.8 | 0.00 | 0.00 | 0.00 | 32 | 1005.0 |
| 20260503233904 | 18 | 42 | 22.5 | 35.4 | 0.00 | 0.00 | 0.00 | 32 | 1004.9 |
| 20260503233404 | 20 | 54 | 14.5 | 27.4 | 0.00 | 0.00 | 0.00 | 32 | 1004.8 |
| 20260503232904 | 20 | 56 | 12.9 | 20.9 | 0.00 | 0.00 | 0.00 | 30 | 1004.6 |
| 20260503231404 | 20 | 46 | 12.9 | 20.9 | 0.00 | 0.00 | 0.00 | 30 | 1004.6 |
| 20260503230905 | 20 | 63 | 8.0 | 25.7 | 0.00 | 0.00 | 0.00 | 30 | 1004.7 |
| 20260503230404 | 20 | 49 | 11.3 | 25.7 | 0.00 | 0.00 | 0.00 | 29 | 1004.6 |
| 20260503225904 | 20 | 49 | 11.3 | 25.7 | 0.00 | 0.00 | 0.00 | 29 | 1004.5 |
| 20260503225404 | 20 | 57 | 11.3 | 25.7 | 0.00 | 0.00 | 0.00 | 29 | 1004.5 |
| 20260503224904 | 20 | 51 | 12.9 | 27.4 | 0.00 | 0.00 | 0.00 | 28 | 1004.6 |
| 20260503224404 | 20 | 58 | 11.3 | 24.1 | 0.00 | 0.00 | 0.00 | 28 | 1004.6 |
| 20260503223904 | 20 | 44 | 9.7 | 19.3 | 0.00 | 0.00 | 0.00 | 30 | 1004.7 |
| 20260503223405 | 20 | 49 | 16.1 | 25.7 | 0.00 | 0.00 | 0.00 | 28 | 1004.7 |
| 20260503222904 | 20 | 47 | 14.5 | 22.5 | 0.00 | 0.00 | 0.00 | 28 | 1004.8 |
| 20260503222404 | 20 | 36 | 12.9 | 27.4 | 0.00 | 0.00 | 0.00 | 28 | 1004.8 |
| 20260503221904 | 21 | 58 | 16.1 | 24.1 | 0.00 | 0.00 | 0.00 | 28 | 1004.9 |
| 20260503220901 | 21 | 53 | 16.1 | 29.0 | 0.00 | 0.00 | 0.00 | 27 | 1004.6 |
| 20260503220401 | 21 | 57 | 14.5 | 22.5 | 0.00 | 0.00 | 0.00 | 26 | 1004.6 |
| 20260503215900 | 22 | 333 | 4.8 | 14.5 | 0.00 | 0.00 | 0.00 | 25 | 1004.8 |
| 20260503215400 | 22 | 210 | 3.2 | 8.0 | 0.00 | 0.00 | 0.00 | 23 | 1004.7 |
| 20260503214400 | 21 | 343 | 3.2 | 19.3 | 0.00 | 0.00 | 0.00 | 24 | 1004.9 |
| 20260503213900 | 22 | 8 | 11.3 | 19.3 | 0.00 | 0.00 | 0.00 | 24 | 1004.9 |
| 20260503212401 | 21 | 353 | 8.0 | 24.1 | 0.00 | 0.00 | 0.00 | 26 | 1005.1 |
| 20260503211900 | 21 | 24 | 6.4 | 19.3 | 0.00 | 0.00 | 0.00 | 26 | 1005.2 |
| 20260503211401 | 21 | 171 | 8.0 | 19.3 | 0.00 | 0.00 | 0.00 | 23 | 1005.2 |
| 20260503210901 | 21 | 284 | 6.4 | 19.3 | 0.00 | 0.00 | 0.00 | 24 | 1005.3 |
| 20260503210402 | 21 | 295 | 16.1 | 29.0 | 0.00 | 0.00 | 0.00 | 24 | 1005.3 |
| 20260503205901 | 21 | 232 | 8.0 | 19.3 | 0.00 | 0.00 | 0.00 | 24 | 1005.4 |
| 20260503205400 | 21 | 44 | 4.8 | 20.9 | 0.00 | 0.00 | 0.00 | 24 | 1005.5 |
| 20260503204901 | 21 | 260 | 8.0 | 16.1 | 0.00 | 0.00 | 0.00 | 26 | 1005.7 |
| 20260503204400 | 21 | 282 | 6.4 | 11.3 | 0.00 | 0.00 | 0.00 | 27 | 1005.7 |
| 20260503203901 | 21 | 327 | 1.6 | 8.0 | 0.00 | 0.00 | 0.00 | 25 | 1005.7 |
| 20260503202400 | 20 | 281 | 9.7 | 22.5 | 0.00 | 0.00 | 0.00 | 26 | 1006.0 |
| 20260503201900 | 20 | 267 | 8.0 | 19.3 | 0.00 | 0.00 | 0.00 | 25 | 1006.3 |
| 20260503201401 | 21 | 289 | 8.0 | 19.3 | 0.00 | 0.00 | 0.00 | 27 | 1006.3 |
| 20260503200901 | 21 | 289 | 9.7 | 19.3 | 0.00 | 0.00 | 0.00 | 27 | 1006.3 |
| 20260503200401 | 20 | 276 | 4.8 | 19.3 | 0.00 | 0.00 | 0.00 | 26 | 1006.4 |
| 20260503195900 | 20 | 315 | 9.7 | 19.3 | 0.00 | 0.00 | 0.00 | 28 | 1006.5 |
| 20260503195400 | 20 | 320 | 6.4 | 16.1 | 0.00 | 0.00 | 0.00 | 28 | 1006.6 |
| 20260503194900 | 20 | 327 | 9.7 | 22.5 | 0.00 | 0.00 | 0.00 | 29 | 1006.7 |
| 20260503194400 | 20 | 351 | 4.8 | 12.9 | 0.00 | 0.00 | 0.00 | 29 | 1006.9 |
| 20260503193900 | 20 | 332 | 11.3 | 20.9 | 0.00 | 0.00 | 0.00 | 28 | 1007.0 |
| 20260503193401 | 20 | 325 | 4.8 | 16.1 | 0.00 | 0.00 | 0.00 | 29 | 1007.1 |
| 20260503192401 | 19 | 85 | 6.4 | 22.5 | 0.00 | 0.00 | 0.00 | 28 | 1007.3 |
| 20260503191901 | 19 | 320 | 9.7 | 14.5 | 0.00 | 0.00 | 0.00 | 29 | 1007.4 |
| 20260503191401 | 19 | 357 | 11.3 | 25.7 | 0.00 | 0.00 | 0.00 | 30 | 1007.6 |
| 20260503190401 | 18 | 316 | 3.2 | 19.3 | 0.00 | 0.00 | 0.00 | 29 | 1007.7 |
| 20260503185402 | 19 | 354 | 11.3 | 19.3 | 0.00 | 0.00 | 0.00 | 30 | 1007.9 |
| 20260503184901 | 18 | 0 | 3.2 | 19.3 | 0.00 | 0.00 | 0.00 | 31 | 1007.9 |
| 20260503184400 | 18 | 358 | 12.9 | 25.7 | 0.00 | 0.00 | 0.00 | 30 | 1008.0 |
| 20260503183901 | 18 | 44 | 14.5 | 22.5 | 0.00 | 0.00 | 0.00 | 30 | 1008.0 |
| 20260503183401 | 18 | 26 | 8.0 | 16.1 | 0.00 | 0.00 | 0.00 | 30 | 1008.0 |
| 20260503182901 | 18 | 355 | 11.3 | 25.7 | 0.00 | 0.00 | 0.00 | 28 | 1008.1 |
| 20260503182401 | 18 | 28 | 8.0 | 16.1 | 0.00 | 0.00 | 0.00 | 31 | 1008.2 |
| 20260503181901 | 18 | 14 | 16.1 | 24.1 | 0.00 | 0.00 | 0.00 | 32 | 1008.2 |
| 20260503181401 | 18 | 321 | 11.3 | 20.9 | 0.00 | 0.00 | 0.00 | 30 | 1008.3 |
| 20260503180901 | 18 | 10 | 14.5 | 22.5 | 0.00 | 0.00 | 0.00 | 30 | 1008.4 |
| 20260503180402 | 18 | 23 | 11.3 | 19.3 | 0.00 | 0.00 | 0.00 | 32 | 1008.5 |
| 20260503175900 | 17 | 355 | 9.7 | 25.7 | 0.00 | 0.00 | 0.00 | 31 | 1008.6 |
| 20260503175401 | 18 | 22 | 16.1 | 24.1 | 0.00 | 0.00 | 0.00 | 30 | 1008.7 |
| 20260503174401 | 17 | 11 | 11.3 | 22.5 | 0.00 | 0.00 | 0.00 | 31 | 1008.8 |
| 20260503173401 | 18 | 35 | 19.3 | 25.7 | 0.00 | 0.00 | 0.00 | 30 | 1008.8 |
| 20260503172901 | 17 | 8 | 11.3 | 22.5 | 0.00 | 0.00 | 0.00 | 32 | 1008.8 |
| 20260503172400 | 17 | 47 | 9.7 | 19.3 | 0.00 | 0.00 | 0.00 | 30 | 1008.9 |
| 20260503171901 | 17 | 353 | 14.5 | 24.1 | 0.00 | 0.00 | 0.00 | 31 | 1009.1 |
| 20260503171401 | 18 | 0 | 17.7 | 24.1 | 0.00 | 0.00 | 0.00 | 31 | 1009.0 |
| 20260503170901 | 17 | 305 | 9.7 | 19.3 | 0.00 | 0.00 | 0.00 | 31 | 1009.0 |
| 20260503150902 | 13 | 255 | 11.3 | 16.1 | 0.00 | 0.00 | 0.00 | 33 | 1010.1 |
| 20260503130902 | 9 | 287 | 3.2 | 4.8 | 0.00 | 0.00 | 0.00 | 37 | 1010.5 |
| 20260503130402 | 9 | 330 | 3.2 | 4.8 | 0.00 | 0.00 | 0.00 | 37 | 1010.5 |
| 20260503110401 | 7 | 268 | 4.8 | 9.7 | 0.00 | 0.00 | 0.00 | 42 | 1010.9 |